• Join FlightAware (Why Join?)
  • Login
  • US Flag 
08:37PM EST


 

Airport Tracker/Info


-or-


 

Live Flight TrackerFlight Track Log ✈ ASQ5720 ✈ 23-Jun-2013 ✈ KIAD - KBTV

Flight Track Log - Related Links

Times and Time Zones

All times are in EDT time to prevent confusion due to time zone crossing. See the ASQ5720 flight status page for this flight to view local times or setup timezone preferences in your user account.

Time Position Orientation Groundspeed Altitude Reporting Facility
EDT Latitude Longitude Course Direction KTS MPH feet Rate Location/Type
10:47PM 38.9500 -77.5167 72° East 178 205 1,600  Level Potomac TRACON
10:48PM 39.0000 -77.5333 345° North 224 258 2,900 1,900 Climbing Potomac TRACON
10:49PM 39.0014 -77.0779 72° East  Level FlightAware Approximate
10:49PM 39.0667 -77.4833 30° Northeast 276 318 5,400  Level Potomac TRACON
10:50PM 39.0167 -76.9520 90° East  Level FlightAware Approximate
10:50PM 39.1333 -77.4500 21° North 276 318 7,800  Level Potomac TRACON
10:51PM 39.0469 -76.8291 72° East  Level FlightAware Approximate
10:51PM 39.1500 -77.3333 80° East 295 339 10,000  Level Potomac TRACON
10:52PM 39.0617 -76.7030 72° East  Level FlightAware Approximate
10:52PM 39.1167 -77.2333 113° Southeast 333 383 10,100  Level Potomac TRACON
10:54PM 39.1078 -76.9664 92° East 350 403 13,700 1,668 Climbing Washington Center
10:55PM 39.1175 -76.8356 84° East 357 411 15,300 1,563 Climbing Washington Center
10:56PM 39.1292 -76.7019 84° East 369 425 16,800 1,279 Climbing Washington Center
10:57PM 39.1408 -76.5683 84° East 369 425 17,900 893 Climbing Washington Center
10:58PM 39.1647 -76.4294 77° East 375 432 18,600 600 Climbing Washington Center
10:59PM 39.2072 -76.2933 68° East 397 457 19,100 450 Climbing Washington Center
11:00PM 39.2558 -76.1867 59° Northeast 404 465 19,500 559 Climbing Washington Center
11:01PM 39.3231 -76.0397 59° Northeast 414 476 20,200 706 Climbing Washington Center
11:02PM 39.3797 -75.9031 62° Northeast 427 491 20,900 655 Climbing Washington Center
11:03PM 39.4406 -75.7661 60° Northeast 432 497 21,500 550 Climbing Washington Center
11:04PM 39.5011 -75.6264 61° Northeast 437 503 22,000 488 Climbing Washington Center
11:05PM 39.5594 -75.4867 62° Northeast 442 509 22,500 504 Climbing Washington Center
11:06PM 39.6194 -75.3464 61° Northeast 442 509 23,000 581 Climbing Washington Center
11:08PM 39.7578 -75.1292 50° Northeast 427 491 24,000 726 Climbing New York Center
11:09PM 39.8414 -75.0128 47° Northeast 438 504 24,900 843 Climbing New York Center
11:10PM 39.9250 -74.8906 48° Northeast 444 511 25,700 793 Climbing New York Center
11:11PM 40.0081 -74.7764 46° Northeast 437 503 26,500 776 Climbing New York Center
11:12PM 40.1483 -74.5739 48° Northeast 444 511 27,900 671 Climbing Boston Center
11:13PM 40.2336 -74.4622 45° Northeast 439 505 28,400 500 Climbing Boston Center
11:14PM 40.3272 -74.3592 40° Northeast 429 494 28,900 300 Climbing Boston Center
11:15PM 40.4425 -74.3133 17° North 424 488 29,000 50 Climbing Boston Center
11:16PM 40.5619 -74.2786 12° North 424 488 29,000  Level Boston Center
11:17PM 40.6875 -74.2464 11° North 435 501 29,000  Level Boston Center
11:18PM 40.8214 -74.2144 10° North 441 507 29,000  Level Boston Center
11:19PM 40.9469 -74.1794 12° North 448 516 29,000  Level Boston Center
11:20PM 41.0703 -74.1469 11° North 448 516 29,000  Level Boston Center
11:21PM 41.1939 -74.1117 12° North 448 516 29,000  Level Boston Center
11:22PM 41.3131 -74.0761 13° North 448 516 29,000  Level Boston Center
11:23PM 41.4386 -74.0461 10° North 443 510 29,000  Level Boston Center
11:24PM 41.5600 -74.0103 12° North 450 518 29,000  Level Boston Center
11:25PM 41.6856 -73.9744 12° North 450 518 29,000  Level Boston Center
11:26PM 41.8028 -73.9411 12° North 450 518 29,000  Level Boston Center
11:27PM 41.9261 -73.9078 11° North 445 512 29,000  Level Boston Center
11:28PM 42.0494 -73.8744 11° North 445 512 29,000  Level Boston Center
11:29PM 42.1708 -73.8406 12° North 445 512 29,000  Level Boston Center
11:30PM 42.2922 -73.8042 13° North 445 512 29,000  Level Boston Center
11:31PM 42.4156 -73.7731 11° North 450 518 29,000  Level Boston Center
11:32PM 42.5242 -73.7417 12° North 450 518 29,000  Level Boston Center
11:33PM 42.6475 -73.7047 12° North 450 518 29,000  Level Boston Center
11:34PM 42.7669 -73.6675 13° North 450 518 29,000  Level Boston Center
11:35PM 42.8964 -73.6275 13° North 441 507 29,000  Level Boston Center
11:36PM 43.0178 -73.5903 13° North 435 501 29,000 -850 Level Boston Center
11:37PM 43.1389 -73.5525 13° North 435 501 27,300 -1,850 Descending Boston Center
11:38PM 43.2539 -73.5206 11° North 430 495 25,300 -1,650 Descending Boston Center
11:39PM 43.3647 -73.4881 12° North 412 474 24,000 -700 Descending Boston Center
11:40PM 43.4714 -73.4528 13° North 400 460 23,900 -1,050 Descending Boston Center
11:41PM 43.5842 -73.4203 12° North 395 455 21,900 -1,900 Descending Boston Center
11:42PM 43.6844 -73.3961 10° North 400 460 20,100 -2,050 Descending Boston Center
11:43PM 43.7992 -73.3606 13° North 386 444 17,800 -2,250 Descending Boston Center
11:44PM 43.8994 -73.3303 12° North 375 432 15,600 -2,250 Descending Boston Center
11:45PM 43.9978 -73.3000 12° North 370 426 13,300 -1,900 Descending Boston Center
11:46PM 44.0853 -73.2753 11° North 341 392 11,800 -1,650 Descending Boston Center
11:47PM 44.1686 -73.2822 357° North 307 353 10,000 -1,800 Descending Boston Center
11:48PM 44.2436 -73.3067 347° North 282 325 8,200 -1,800 Descending Boston Center
11:49PM 44.3203 -73.3281 349° North 277 319 6,400 -1,400 Descending Boston Center
11:50PM 44.3892 -73.3436 351° North 260 299 5,400 -1,000 Descending Boston Center
11:51PM 44.4494 -73.3561 352° North 236 272 4,400 -1,000 Descending Boston Center
11:52PM 44.5036 -73.3483 North 209 241 3,400 -1,150 Descending Boston Center
11:53PM 44.5375 -73.2847 53° Northeast 183 211 2,100 -900 Descending Boston Center
11:54PM 44.5169 -73.2261 116° Southeast 150 173 1,600 -650 Descending Boston Center
11:55PM 44.4903 -73.1850 132° Southeast 136 157 800 -600 Descending Boston Center
11:56PM 44.4717 -73.1500 127° Southeast 136 157 400 -200 Descending Boston Center
11:57PM 44.4469 -73.1117 132° Southeast 127 146 400 4,818 Level Boston Center
11:59PM 44.4158 -73.0678 135° Southeast 127 146 11,000 8,833 Climbing Boston Center